Terminal Aerodrome Forecast
Issued by NWS Topeka, KS

Home | Current Version | Previous Version | Text Only | Print | Product List | Glossary On
Versions: 1 2 3 4 5 6 7 8 9 10 11 12 13 14 15 16 17 18
000
FTUS43 KTOP 011500 AAA
TAFTOP
TAF AMD
KTOP 011524Z 0115/0212 30004KT P6SM SCT015 OVC040
     FM011700 28005KT P6SM BKN020
     FM020100 01003KT P6SM BKN250=

USA.gov is the U.S. government's official web portal to all federal, state and local government web resources and services.